{"data":{"norad_id":64800,"epoch":"2026-09-20T14:19:37.909056Z","epoch_age_seconds":119192,"freshness":"FRESH","line1":"1 64800U 25150L   26263.59696654  .00001622  00000+0  14372-3 0  9990","line2":"2 64800  70.0023   2.9625 0003691 268.9007  91.1729 14.98335222 65714","mean_motion":14.98335222,"eccentricity":0.0003691,"inclination_deg":70.0023,"raan_deg":2.9625,"arg_perigee_deg":268.9007,"mean_anomaly_deg":91.1729,"bstar":0.00014372,"rev_number":6571,"period_min":96.106664173446,"perigee_km":569.47443215147,"apogee_km":574.6050526227,"semimajor_km":6950.1767423871,"source":"CELESTRAK","updated_at":"2026-09-21T09:00:35.444420Z"}}